Weather History for Lancaster, CA

Change the Weather History Date:

Saturday, November 9, 2013

  Actual Average Record
Temperature  
Mean Temperature 54 °F 54 °F  
Max Temperature 74 °F 70 °F 86 °F (1950)
Min Temperature 33 °F 38 °F 18 °F (1948)
Degree Days  
Heating Degree Days 11    
Month to date heating degree days 119  
Since 1 July heating degree days 361  
Cooling Degree Days 0    
Month to date cooling degree days 0  
Year to date cooling degree days 2204  
Growing Degree Days 4 (Base 50)    
Moisture  
Dew Point 15 °F    
Average Humidity 30    
Maximum Humidity 50    
Minimum Humidity 9    
Precipitation  
Precipitation 0.00 in 0.01 in 1.01 in (1982)
Month to date precipitation 0.00 0.14  
Year to date precipitation 1.17 5.83  
Since 1 July precipitation 0.07 0.92  
Snow  
Snow 0.00 in - 0.00 in ()
Month to date snowfall 0.0  
Since 1 July snowfall 0.0  
Since 1 September snowfall 0.0  
Snow Depth 0.00 in    
Sea Level Pressure  
Sea Level Pressure 30.08 in    
Wind  
Wind Speed 3 mph (North)    
Max Wind Speed 12 mph    
Max Gust Speed 12 mph    
Visibility 10 miles    
Events      
T = Trace of Precipitation, MM = Missing Value Source: NWS Daily Summary

Daily Weather History Graph

Daily Weather History Graph

Search for Another Location

Airport:

Trip Planner

Search our weather history database for the weather conditions in past years. The results will help you decide how hot, cold, wet, or windy it might be!

Date:

Astronomy

Nov. 09, 2013 Rise Set
Actual Time 6:21 AM PST 4:51 PM PST
Civil Twilight 5:54 AM PST 5:18 PM PST
Nautical Twilight 5:24 AM PST 5:48 PM PST
Astronomical Twilight 4:54 AM PST 6:18 PM PST
Moon 12:03 PM PST (11/9) 11:23 PM PST (11/9)
Length of Visible Light 11h 23m
Length of Day
10h 30m
Waxing Crescent, 45% of the Moon is Illuminated
Nov 9
Waxing Crescent
Nov 9
First Quarter
Nov 17
Full
Nov 25
Last Quarter
Dec 2
New

Hourly Weather History & Observations

Time (PST) Temp. Windchill Dew Point Humidity Pressure Visibility Wind Dir Wind Speed Gust Speed Precip Events Conditions
12:56 AM 39.0 °F - 23.0 °F 53% 30.03 in 10.0 mi Calm Calm - N/A   Clear
1:56 AM 39.0 °F 35.7 °F 21.9 °F 50% 30.03 in 10.0 mi NNE 4.6 mph - N/A   Clear
2:56 AM 37.0 °F 34.5 °F 19.9 °F 50% 30.03 in 10.0 mi East 3.5 mph - N/A   Clear
3:56 AM 37.0 °F - 17.1 °F 44% 30.04 in 10.0 mi Calm Calm - N/A   Clear
4:56 AM 34.0 °F 31.0 °F 15.1 °F 46% 30.06 in 10.0 mi North 3.5 mph - N/A   Clear
5:56 AM 36.0 °F - 17.1 °F 46% 30.08 in 10.0 mi Calm Calm - N/A   Clear
6:56 AM 37.9 °F - 16.0 °F 41% 30.10 in 10.0 mi Calm Calm - N/A   Clear
7:56 AM 41.0 °F - 15.1 °F 35% 30.13 in 10.0 mi Calm Calm - N/A   Clear
8:56 AM 51.1 °F - 15.1 °F 24% 30.13 in 10.0 mi Calm Calm - N/A   Clear
9:56 AM 55.9 °F - 16.0 °F 21% 30.13 in 10.0 mi Calm Calm - N/A   Clear
10:56 AM 63.0 °F - 17.1 °F 17% 30.10 in 10.0 mi Calm Calm - N/A   Clear
11:56 AM 68.0 °F - 17.1 °F 14% 30.08 in 10.0 mi East 4.6 mph - N/A   Clear
12:56 PM 71.1 °F - 12.9 °F 11% 30.06 in 10.0 mi Variable 3.5 mph - N/A   Clear
1:56 PM 73.0 °F - 12.0 °F 10% 30.05 in 10.0 mi Calm Calm - N/A   Clear
2:56 PM 73.9 °F - 10.9 °F 9% 30.04 in 10.0 mi ENE 4.6 mph - N/A   Clear
3:56 PM 73.0 °F - 10.0 °F 9% 30.04 in 10.0 mi NE 3.5 mph - N/A   Clear
4:56 PM 66.9 °F - 10.0 °F 11% 30.06 in 10.0 mi Calm Calm - N/A   Clear
5:56 PM 59.0 °F - 12.9 °F 16% 30.09 in 10.0 mi West 10.4 mph - N/A   Clear
6:56 PM 55.0 °F - 12.9 °F 19% 30.11 in 10.0 mi WSW 6.9 mph - N/A   Clear
7:56 PM 48.9 °F - 10.9 °F 22% 30.12 in 10.0 mi NNW 5.8 mph - N/A   Clear
8:56 PM 45.0 °F 41.2 °F 10.9 °F 25% 30.13 in 10.0 mi WNW 6.9 mph - N/A   Clear
9:56 PM 48.0 °F - 16.0 °F 28% 30.13 in 10.0 mi WSW 4.6 mph - N/A   Clear
10:56 PM 46.9 °F - 17.1 °F 30% 30.12 in 10.0 mi Calm Calm - N/A   Clear
11:56 PM 41.0 °F - 14.0 °F 33% 30.13 in 10.0 mi Calm Calm - N/A   Clear